,,,PA_Meas_PMT16A,,PR_Meas_QMR101_102,,RH_Meas_QMH101,,SR_Meas_QMS101,,TA_Meas_QMH101,,GenWind,,GenWind,
date,time,status,PA,status,PR,status,RH,status,SR,status,TA,status,DirAvg,status,SpdAvg,
2009-10-01, 00:00:05,VALID,1000.02,VALID,0,VALID,90.7085,VALID,0,VALID,24.4623,VALID,100,VALID,0.294531,
2009-10-01, 00:01:05,VALID,999.977,VALID,0,VALID,90.7238,VALID,0,VALID,24.4428,VALID,100,VALID,0.198437,
2009-10-01, 00:02:05,VALID,999.976,VALID,0,VALID,90.7085,VALID,0,VALID,24.4428,VALID,100,VALID,0.239063,
2009-10-01, 00:03:05,VALID,999.984,VALID,0,VALID,90.8764,VALID,0,VALID,24.4233,VALID,100,VALID,0.460156,
2009-10-01, 00:04:05,VALID,999.945,VALID,0,VALID,90.9527,VALID,0,VALID,24.4428,VALID,100,VALID,0.550391,
2009-10-01, 00:05:05,VALID,999.931,VALID,0,VALID,91.1206,VALID,0,VALID,24.4623,VALID,100,VALID,0.451562,
2009-10-01, 00:06:05,VALID,999.91,VALID,0,VALID,91.1511,VALID,0,VALID,24.5227,VALID,100,VALID,0.49375,
2009-10-01, 00:07:05,VALID,999.914,VALID,0,VALID,91.1968,VALID,0,VALID,24.5013,VALID,100,VALID,0.429688,
2009-10-01, 00:08:05,VALID,999.864,VALID,0,VALID,91.1206,VALID,0,VALID,24.5404,VALID,100,VALID,0.407813,
2009-10-01, 00:09:05,VALID,999.857,VALID,0,VALID,91.09,VALID,0,VALID,24.5618,VALID,100,VALID,0.303125,
2009-10-01, 00:10:05,VALID,999.853,VALID,0,VALID,91.0595,VALID,0,VALID,24.5599,VALID,100,VALID,0.376953,
2009-10-01, 00:11:05,VALID,999.827,VALID,0,VALID,91.0748,VALID,0,VALID,24.5599,VALID,100,VALID,0.451172,
2009-10-01, 00:12:05,VALID,999.815,VALID,0,VALID,91.0443,VALID,0,VALID,24.5599,VALID,100,VALID,0.478516,
2009-10-01, 00:13:05,VALID,999.825,VALID,0,VALID,90.8764,VALID,0,VALID,24.5599,VALID,95,VALID,0.6125,
2009-10-01, 00:14:05,VALID,999.84,VALID,0,VALID,90.4797,VALID,0,VALID,24.5171,VALID,78,VALID,0.678125,
2009-10-01, 00:15:05,VALID,999.815,VALID,0,VALID,90.5788,VALID,0,VALID,24.519,VALID,78,VALID,0.507422,
2009-10-01, 00:16:05,VALID,999.834,VALID,0,VALID,90.4339,VALID,0,VALID,24.4995,VALID,78,VALID,0.471875,
2009-10-01, 00:17:05,VALID,999.807,VALID,0,VALID,90.3576,VALID,0,VALID,24.4995,VALID,90,VALID,0.490625,
2009-10-01, 00:18:05,VALID,999.792,VALID,0,VALID,90.3118,VALID,0,VALID,24.4995,VALID,98,VALID,0.375781,
2009-10-01, 00:19:05,VALID,999.802,VALID,0,VALID,90.2203,VALID,0,VALID,24.4995,VALID,98,VALID,0.328906,
2009-10-01, 00:20:05,VALID,999.79,VALID,0,VALID,90.1134,VALID,0.112286,VALID,24.519,VALID,113,VALID,0.566797,
2009-10-01, 00:21:05,VALID,999.77,VALID,0,VALID,90.1134,VALID,0,VALID,24.519,VALID,116,VALID,0.628125,
2009-10-01, 00:22:05,VALID,999.752,VALID,0,VALID,90.0295,VALID,0.112286,VALID,24.558,VALID,116,VALID,0.809766,
2009-10-01, 00:23:05,VALID,999.714,VALID,0,VALID,89.9303,VALID,0.112286,VALID,24.5562,VALID,116,VALID,0.846094,
2009-10-01, 00:24:05,VALID,999.717,VALID,0,VALID,89.9685,VALID,0.112286,VALID,24.5971,VALID,116,VALID,0.778906,
2009-10-01, 00:25:05,VALID,999.728,VALID,0,VALID,89.6938,VALID,0.112286,VALID,24.6147,VALID,116,VALID,0.75,
2009-10-01, 00:26:05,VALID,999.733,VALID,0,VALID,89.6175,VALID,0.112286,VALID,24.6361,VALID,116,VALID,0.683203,
2009-10-01, 00:27:05,VALID,999.736,VALID,0,VALID,89.4344,VALID,0.112286,VALID,24.6556,VALID,116,VALID,0.605469,
2009-10-01, 00:28:05,VALID,999.733,VALID,0,VALID,89.2742,VALID,0.112286,VALID,24.6556,VALID,117,VALID,0.659375,
2009-10-01, 00:29:05,VALID,999.755,VALID,0,VALID,89.1216,VALID,0,VALID,24.6361,VALID,119,VALID,0.468359,
2009-10-01, 00:30:05,VALID,999.751,VALID,0,VALID,88.9995,VALID,0,VALID,24.6166,VALID,125,VALID,0.576953,
2009-10-01, 00:31:05,VALID,999.738,VALID,0,VALID,88.6714,VALID,0,VALID,24.5971,VALID,152,VALID,0.889844,
2009-10-01, 00:32:05,VALID,999.684,VALID,0,VALID,88.2823,VALID,0,VALID,24.5775,VALID,145,VALID,0.775781,
2009-10-01, 00:33:05,VALID,999.655,VALID,0,VALID,88.2213,VALID,0.112286,VALID,24.558,VALID,140,VALID,0.673047,
2009-10-01, 00:34:05,VALID,999.657,VALID,0,VALID,88.3892,VALID,0,VALID,24.558,VALID,139,VALID,0.790234,
2009-10-01, 00:35:05,VALID,999.656,VALID,0,VALID,88.5036,VALID,0.112286,VALID,24.558,VALID,139,VALID,0.704297,
2009-10-01, 00:36:05,VALID,999.597,VALID,0,VALID,88.1679,VALID,0,VALID,24.5775,VALID,139,VALID,0.585547,
2009-10-01, 00:37:05,VALID,999.589,VALID,0,VALID,88.2594,VALID,0,VALID,24.558,VALID,139,VALID,0.657031,
2009-10-01, 00:38:05,VALID,999.603,VALID,0,VALID,88.3663,VALID,0.112286,VALID,24.5775,VALID,141,VALID,0.610547,
2009-10-01, 00:39:05,VALID,999.555,VALID,0,VALID,88.1068,VALID,0,VALID,24.5971,VALID,160,VALID,0.611328,
2009-10-01, 00:40:05,VALID,999.553,VALID,0,VALID,87.9237,VALID,0,VALID,24.5775,VALID,163,VALID,0.875781,
2009-10-01, 00:41:05,VALID,999.533,VALID,0,VALID,88.2289,VALID,0,VALID,24.6166,VALID,167,VALID,0.908203,
2009-10-01, 00:42:05,VALID,999.503,VALID,0,VALID,87.9466,VALID,0.112286,VALID,24.6751,VALID,169,VALID,1.24531,
2009-10-01, 00:43:05,VALID,999.506,VALID,0,VALID,87.6186,VALID,0,VALID,24.7142,VALID,172,VALID,1.28516,
2009-10-01, 00:44:04,VALID,999.518,VALID,0,VALID,87.1379,VALID,0,VALID,24.7746,VALID,174,VALID,1.26133,
2009-10-01, 00:45:04,VALID,999.509,VALID,0,VALID,86.6496,VALID,0,VALID,24.8527,VALID,162,VALID,1.10234,
2009-10-01, 00:46:04,VALID,999.47,VALID,0,VALID,86.2986,VALID,0,VALID,24.8527,VALID,162,VALID,1.18711,
2009-10-01, 00:47:04,VALID,999.493,VALID,0,VALID,86.436,VALID,0,VALID,24.8722,VALID,169,VALID,1.32266,
2009-10-01, 00:48:04,VALID,999.404,VALID,0,VALID,86.3749,VALID,0,VALID,24.8722,VALID,191,VALID,1.44531,
2009-10-01, 00:49:04,VALID,999.415,VALID,0,VALID,86.1155,VALID,0,VALID,24.8917,VALID,153,VALID,1.54258,
2009-10-01, 00:50:04,VALID,999.42,VALID,0,VALID,85.9172,VALID,0,VALID,24.9308,VALID,155,VALID,1.25156,
2009-10-01, 00:51:04,VALID,999.446,VALID,0,VALID,85.6883,VALID,0,VALID,24.9308,VALID,163,VALID,1.04062,
2009-10-01, 00:52:04,VALID,999.402,VALID,0,VALID,85.7188,VALID,0,VALID,24.9112,VALID,156,VALID,1.03437,
2009-10-01, 00:53:04,VALID,999.447,VALID,0,VALID,85.9019,VALID,0,VALID,24.8722,VALID,153,VALID,1.25117,
2009-10-01, 00:54:04,VALID,999.418,VALID,0,VALID,86.146,VALID,0,VALID,24.8546,VALID,152,VALID,1.18008,
2009-10-01, 00:55:04,VALID,999.44,VALID,0,VALID,86.5046,VALID,0,VALID,24.8136,VALID,149,VALID,1.23789,
2009-10-01, 00:56:04,VALID,999.429,VALID,0,VALID,86.558,VALID,0,VALID,24.835,VALID,146,VALID,1.01484,
2009-10-01, 00:57:04,VALID,999.393,VALID,0,VALID,86.4894,VALID,0,VALID,24.7746,VALID,143,VALID,0.988672,
2009-10-01, 00:58:04,VALID,999.405,VALID,0,VALID,86.1842,VALID,0,VALID,24.7765,VALID,134,VALID,0.926172,
2009-10-01, 00:59:04,VALID,999.415,VALID,0,VALID,86.3139,VALID,0,VALID,24.6965,VALID,133,VALID,0.913281,
2009-10-01, 01:00:04,VALID,999.417,VALID,0,VALID,86.5733,VALID,0,VALID,24.6789,VALID,132,VALID,0.792188,
2009-10-01, 01:01:04,VALID,999.398,VALID,0,VALID,86.5657,VALID,0,VALID,24.6184,VALID,132,VALID,0.663281,
2009-10-01, 01:02:04,VALID,999.393,VALID,0,VALID,87.0158,VALID,0,VALID,24.5989,VALID,131,VALID,0.628125,
2009-10-01, 01:03:04,VALID,999.382,VALID,0,VALID,86.9777,VALID,0,VALID,24.6008,VALID,130,VALID,0.551562,
2009-10-01, 01:04:04,VALID,999.408,VALID,0,VALID,87.0006,VALID,0,VALID,24.5599,VALID,129,VALID,0.642969,
2009-10-01, 01:05:04,VALID,999.399,VALID,0,VALID,87.1913,VALID,0,VALID,24.5599,VALID,129,VALID,0.600391,
2009-10-01, 01:06:04,VALID,999.357,VALID,0,VALID,87.321,VALID,0,VALID,24.5404,VALID,129,VALID,0.582422,
2009-10-01, 01:07:04,VALID,999.355,VALID,0,VALID,87.3363,VALID,0,VALID,24.5404,VALID,129,VALID,0.411719,
2009-10-01, 01:08:04,VALID,999.359,VALID,0,VALID,87.3744,VALID,0,VALID,24.5404,VALID,129,VALID,0.403906,
2009-10-01, 01:09:04,VALID,999.389,VALID,0,VALID,87.4431,VALID,0,VALID,24.5618,VALID,129,VALID,0.448438,
2009-10-01, 01:10:04,VALID,999.373,VALID,0,VALID,87.3439,VALID,0,VALID,24.5404,VALID,133,VALID,0.732031,
2009-10-01, 01:11:04,VALID,999.349,VALID,0,VALID,87.0616,VALID,0,VALID,24.5599,VALID,141,VALID,0.620703,
2009-10-01, 01:12:04,VALID,999.316,VALID,0,VALID,86.9548,VALID,0,VALID,24.5599,VALID,141,VALID,0.712891,
2009-10-01, 01:13:04,VALID,999.316,VALID,0,VALID,86.8251,VALID,0,VALID,24.5794,VALID,140,VALID,0.770312,
2009-10-01, 01:14:04,VALID,999.277,VALID,0,VALID,86.6267,VALID,0,VALID,24.5794,VALID,133,VALID,0.764844,
2009-10-01, 01:15:04,VALID,999.273,VALID,0,VALID,86.5199,VALID,0,VALID,24.5794,VALID,118,VALID,0.827344,
2009-10-01, 01:16:04,VALID,999.231,VALID,0,VALID,86.6572,VALID,0,VALID,24.5599,VALID,114,VALID,0.742188,
2009-10-01, 01:17:04,VALID,999.184,VALID,0,VALID,86.8327,VALID,0,VALID,24.5599,VALID,108,VALID,0.727344,
2009-10-01, 01:18:04,VALID,999.163,VALID,0,VALID,86.909,VALID,0,VALID,24.5404,VALID,102,VALID,0.798437,
2009-10-01, 01:19:04,VALID,999.152,VALID,0,VALID,86.6343,VALID,0,VALID,24.4409,VALID,101,VALID,0.796484,
2009-10-01, 01:20:04,VALID,999.172,VALID,0,VALID,86.9777,VALID,0,VALID,24.3842,VALID,101,VALID,0.78125,
2009-10-01, 01:21:04,VALID,999.142,VALID,0,VALID,87.4202,VALID,0,VALID,24.3062,VALID,101,VALID,0.661328,
2009-10-01, 01:22:04,VALID,999.157,VALID,0,VALID,87.8169,VALID,0,VALID,24.2476,VALID,101,VALID,0.563672,
2009-10-01, 01:23:04,VALID,999.125,VALID,0,VALID,88.1145,VALID,0,VALID,24.1696,VALID,101,VALID,0.663281,
2009-10-01, 01:24:04,VALID,999.116,VALID,0,VALID,88.6409,VALID,0,VALID,24.15,VALID,98,VALID,0.707812,
2009-10-01, 01:25:04,VALID,999.049,VALID,0,VALID,88.8774,VALID,0,VALID,24.111,VALID,96,VALID,0.782812,
2009-10-01, 01:26:04,VALID,999.053,VALID,0,VALID,88.9461,VALID,0,VALID,24.072,VALID,95,VALID,0.786719,
2009-10-01, 01:27:04,VALID,999.034,VALID,0,VALID,88.9232,VALID,0,VALID,24.0329,VALID,95,VALID,0.759375,
2009-10-01, 01:28:04,VALID,998.999,VALID,0,VALID,89.2055,VALID,0,VALID,23.9939,VALID,95,VALID,0.635547,
2009-10-01, 01:29:04,VALID,999.01,VALID,0,VALID,89.3047,VALID,0,VALID,23.9531,VALID,95,VALID,0.412891,
2009-10-01, 01:30:04,VALID,999.015,VALID,0,VALID,89.3047,VALID,0,VALID,23.9549,VALID,95,VALID,0.175,
2009-10-01, 01:31:04,VALID,999.006,VALID,0,VALID,89.4191,VALID,0,VALID,23.9159,VALID,95,VALID,0,
2009-10-01, 01:32:04,VALID,999.007,VALID,0,VALID,89.4802,VALID,0,VALID,23.8963,VALID,95,VALID,0,
2009-10-01, 01:33:04,VALID,998.96,VALID,0,VALID,89.5565,VALID,0,VALID,23.8573,VALID,95,VALID,0.113672,
2009-10-01, 01:34:04,VALID,998.974,VALID,0,VALID,89.7091,VALID,0,VALID,23.8591,VALID,95,VALID,0.303516,
2009-10-01, 01:35:04,VALID,998.956,VALID,0,VALID,89.793,VALID,0,VALID,23.8183,VALID,95,VALID,0.359766,
2009-10-01, 01:36:04,VALID,998.969,VALID,0,VALID,89.8998,VALID,0,VALID,23.7988,VALID,91,VALID,0.498437,
2009-10-01, 01:37:04,VALID,998.96,VALID,0,VALID,89.8311,VALID,0,VALID,23.7988,VALID,51,VALID,0.642969,
2009-10-01, 01:38:04,VALID,998.943,VALID,0,VALID,90.205,VALID,0,VALID,23.7597,VALID,51,VALID,0.819922,
2009-10-01, 01:39:04,VALID,998.928,VALID,0,VALID,90.1974,VALID,0,VALID,23.7597,VALID,43,VALID,0.962891,
2009-10-01, 01:40:04,VALID,998.961,VALID,0,VALID,90.2889,VALID,0,VALID,23.7402,VALID,33,VALID,0.808594,
2009-10-01, 01:41:04,VALID,998.953,VALID,0,VALID,90.35,VALID,0,VALID,23.7207,VALID,33,VALID,0.790625,
2009-10-01, 01:42:04,VALID,998.935,VALID,0,VALID,90.3728,VALID,0,VALID,23.6817,VALID,31,VALID,0.836328,
2009-10-01, 01:43:04,VALID,998.924,VALID,0,VALID,90.3881,VALID,0,VALID,23.6427,VALID,31,VALID,0.617188,
2009-10-01, 01:44:04,VALID,998.964,VALID,0,VALID,90.5026,VALID,0,VALID,23.6232,VALID,31,VALID,0.544922,
2009-10-01, 01:45:04,VALID,998.962,VALID,0,VALID,90.472,VALID,0,VALID,23.5646,VALID,31,VALID,0.282422,
2009-10-01, 01:46:04,VALID,998.959,VALID,0,VALID,90.617,VALID,0,VALID,23.5061,VALID,31,VALID,0.295312,
2009-10-01, 01:47:04,VALID,998.96,VALID,0,VALID,90.8383,VALID,0,VALID,23.5061,VALID,31,VALID,0.395312,
2009-10-01, 01:48:04,VALID,998.947,VALID,0,VALID,90.9756,VALID,0,VALID,23.4671,VALID,31,VALID,0.220313,
2009-10-01, 01:49:04,VALID,998.936,VALID,0,VALID,91.3494,VALID,0,VALID,23.5061,VALID,31,VALID,0.270703,
2009-10-01, 01:50:04,VALID,998.922,VALID,0,VALID,91.5326,VALID,0,VALID,23.5451,VALID,31,VALID,0.130469,
2009-10-01, 01:51:04,VALID,998.951,VALID,0,VALID,91.5097,VALID,0,VALID,23.5451,VALID,31,VALID,0,
2009-10-01, 01:52:04,VALID,998.93,VALID,0,VALID,91.5554,VALID,0,VALID,23.5451,VALID,31,VALID,0,
2009-10-01, 01:53:04,VALID,998.897,VALID,0,VALID,91.5707,VALID,0,VALID,23.5646,VALID,31,VALID,0,
2009-10-01, 01:54:04,VALID,998.918,VALID,0,VALID,91.6851,VALID,0,VALID,23.5646,VALID,31,VALID,0.243359,
2009-10-01, 01:55:04,VALID,998.91,VALID,0,VALID,91.7996,VALID,0,VALID,23.6054,VALID,31,VALID,0.39375,
2009-10-01, 01:56:04,VALID,998.878,VALID,0,VALID,91.8606,VALID,0,VALID,23.625,VALID,31,VALID,0.446094,
2009-10-01, 01:57:04,VALID,998.851,VALID,0,VALID,91.8072,VALID,0,VALID,23.6445,VALID,31,VALID,0.507422,
2009-10-01, 01:58:04,VALID,998.865,VALID,0,VALID,91.6928,VALID,0,VALID,23.6427,VALID,31,VALID,0.508594,
2009-10-01, 01:59:04,VALID,998.877,VALID,0,VALID,91.6088,VALID,0,VALID,23.6036,VALID,31,VALID,0.600391,
2009-10-01, 02:00:04,VALID,998.859,VALID,0,VALID,91.8301,VALID,0,VALID,23.6036,VALID,31,VALID,0.496484,
2009-10-01, 02:01:04,VALID,998.866,VALID,0,VALID,91.7462,VALID,0,VALID,23.5841,VALID,31,VALID,0.529688,
2009-10-01, 02:02:04,VALID,998.856,VALID,0,VALID,91.8148,VALID,0,VALID,23.6036,VALID,31,VALID,0.323438,
2009-10-01, 02:03:04,VALID,998.849,VALID,0,VALID,91.7843,VALID,0,VALID,23.6036,VALID,31,VALID,0.0175781,
2009-10-01, 02:04:04,VALID,998.847,VALID,0,VALID,91.7843,VALID,0,VALID,23.6036,VALID,31,VALID,0.00273437,
2009-10-01, 02:05:04,VALID,998.81,VALID,0,VALID,91.792,VALID,0,VALID,23.6036,VALID,31,VALID,0.204688,
2009-10-01, 02:06:04,VALID,998.836,VALID,0,VALID,91.8606,VALID,0,VALID,23.6036,VALID,31,VALID,0.0957031,
2009-10-01, 02:07:04,VALID,998.822,VALID,0,VALID,91.9598,VALID,0,VALID,23.6036,VALID,31,VALID,0.0335938,
2009-10-01, 02:08:04,VALID,998.815,VALID,0,VALID,91.8606,VALID,0,VALID,23.6232,VALID,31,VALID,0,
2009-10-01, 02:09:04,VALID,998.849,VALID,0,VALID,91.853,VALID,0,VALID,23.6036,VALID,31,VALID,0,
2009-10-01, 02:10:04,VALID,998.807,VALID,0,VALID,91.8988,VALID,0,VALID,23.6036,VALID,31,VALID,0,
2009-10-01, 02:11:04,VALID,998.773,VALID,0,VALID,91.9674,VALID,0,VALID,23.6427,VALID,31,VALID,0.113281,
2009-10-01, 02:12:04,VALID,998.796,VALID,0,VALID,92.0514,VALID,0,VALID,23.6427,VALID,31,VALID,0.263281,
2009-10-01, 02:13:04,VALID,998.738,VALID,0,VALID,92.1506,VALID,0,VALID,23.6817,VALID,31,VALID,0.252344,
2009-10-01, 02:14:04,VALID,998.746,VALID,0,VALID,91.9903,VALID,0,VALID,23.703,VALID,31,VALID,0.269141,
2009-10-01, 02:15:04,VALID,998.744,VALID,0,VALID,91.998,VALID,0,VALID,23.703,VALID,31,VALID,0.421875,
2009-10-01, 02:16:04,VALID,998.753,VALID,0,VALID,91.9445,VALID,0,VALID,23.6622,VALID,31,VALID,0.662109,
2009-10-01, 02:17:04,VALID,998.743,VALID,0,VALID,91.9293,VALID,0,VALID,23.6622,VALID,31,VALID,0.750391,
2009-10-01, 02:18:04,VALID,998.737,VALID,0,VALID,91.8683,VALID,0,VALID,23.6622,VALID,31,VALID,0.955469,
2009-10-01, 02:19:04,VALID,998.748,VALID,0,VALID,91.7614,VALID,0,VALID,23.6232,VALID,31,VALID,0.944531,
2009-10-01, 02:20:04,VALID,998.755,VALID,0,VALID,91.7767,VALID,0,VALID,23.625,VALID,31,VALID,0.930859,
2009-10-01, 02:21:04,VALID,998.786,VALID,0,VALID,91.6546,VALID,0,VALID,23.6036,VALID,31,VALID,0.79375,
2009-10-01, 02:22:04,VALID,998.758,VALID,0,VALID,91.5936,VALID,0,VALID,23.5646,VALID,32,VALID,0.698047,
2009-10-01, 02:23:04,VALID,998.755,VALID,0,VALID,91.6394,VALID,0,VALID,23.5256,VALID,37,VALID,0.678906,
2009-10-01, 02:24:04,VALID,998.72,VALID,0,VALID,91.8377,VALID,0,VALID,23.5256,VALID,50,VALID,0.804297,
2009-10-01, 02:25:04,VALID,998.713,VALID,0,VALID,91.8988,VALID,0,VALID,23.5451,VALID,52,VALID,0.817578,
2009-10-01, 02:26:04,VALID,998.652,VALID,0,VALID,91.9598,VALID,0,VALID,23.5646,VALID,56,VALID,0.956641,
2009-10-01, 02:27:04,VALID,998.654,VALID,0,VALID,91.9598,VALID,0,VALID,23.5646,VALID,56,VALID,0.832031,
2009-10-01, 02:28:04,VALID,998.615,VALID,0,VALID,91.9217,VALID,0,VALID,23.5646,VALID,59,VALID,0.934766,
2009-10-01, 02:29:04,VALID,998.644,VALID,0,VALID,92.0666,VALID,0,VALID,23.5841,VALID,59,VALID,0.902734,
2009-10-01, 02:30:04,VALID,998.648,VALID,0,VALID,92.0437,VALID,0,VALID,23.6036,VALID,59,VALID,0.850391,
2009-10-01, 02:31:04,VALID,998.626,VALID,0,VALID,91.9217,VALID,0,VALID,23.6036,VALID,59,VALID,0.806641,
2009-10-01, 02:32:04,VALID,998.619,VALID,0,VALID,91.7538,VALID,0,VALID,23.6036,VALID,59,VALID,0.664063,
2009-10-01, 02:33:04,VALID,998.624,VALID,0,VALID,91.6012,VALID,0,VALID,23.5841,VALID,59,VALID,0.564453,
2009-10-01, 02:34:04,VALID,998.617,VALID,0,VALID,91.5631,VALID,0,VALID,23.5646,VALID,59,VALID,0.490625,
2009-10-01, 02:35:04,VALID,998.592,VALID,0,VALID,91.708,VALID,0,VALID,23.5274,VALID,59,VALID,0.620313,
2009-10-01, 02:36:04,VALID,998.551,VALID,0,VALID,91.7385,VALID,0,VALID,23.5469,VALID,59,VALID,0.692187,
2009-10-01, 02:37:04,VALID,998.526,VALID,0,VALID,91.8759,VALID,0,VALID,23.5664,VALID,59,VALID,0.957812,
2009-10-01, 02:38:04,VALID,998.492,VALID,0,VALID,92.0209,VALID,0,VALID,23.5841,VALID,59,VALID,1.04727,
2009-10-01, 02:39:04,VALID,998.471,VALID,0,VALID,91.9751,VALID,0,VALID,23.625,VALID,59,VALID,1.04062,
2009-10-01, 02:40:04,VALID,998.506,VALID,0,VALID,91.8835,VALID,0,VALID,23.6036,VALID,64,VALID,1.05703,
2009-10-01, 02:41:04,VALID,998.487,VALID,0,VALID,91.7538,VALID,0,VALID,23.6036,VALID,65,VALID,0.942187,
2009-10-01, 02:42:04,VALID,998.501,VALID,0,VALID,91.6851,VALID,0,VALID,23.6054,VALID,66,VALID,0.850781,
2009-10-01, 02:43:04,VALID,998.518,VALID,0,VALID,91.647,VALID,0,VALID,23.5841,VALID,67,VALID,0.758984,
2009-10-01, 02:44:04,VALID,998.525,VALID,0,VALID,91.7843,VALID,0,VALID,23.5841,VALID,67,VALID,0.832031,
2009-10-01, 02:45:04,VALID,998.501,VALID,0,VALID,91.7843,VALID,0,VALID,23.5646,VALID,67,VALID,0.783594,
2009-10-01, 02:46:04,VALID,998.495,VALID,0,VALID,91.8835,VALID,0,VALID,23.6036,VALID,67,VALID,0.740234,
2009-10-01, 02:47:04,VALID,998.47,VALID,0,VALID,91.8835,VALID,0,VALID,23.625,VALID,67,VALID,0.770312,
2009-10-01, 02:48:04,VALID,998.41,VALID,0,VALID,91.7843,VALID,0,VALID,23.625,VALID,75,VALID,0.805078,
2009-10-01, 02:49:04,VALID,998.385,VALID,0,VALID,91.7767,VALID,0,VALID,23.6036,VALID,83,VALID,0.780859,
2009-10-01, 02:50:04,VALID,998.349,VALID,0,VALID,91.647,VALID,0,VALID,23.5841,VALID,90,VALID,0.798828,
2009-10-01, 02:51:04,VALID,998.365,VALID,0,VALID,91.6851,VALID,0,VALID,23.5841,VALID,90,VALID,0.690625,
2009-10-01, 02:52:04,VALID,998.38,VALID,0,VALID,91.7385,VALID,0,VALID,23.5841,VALID,103,VALID,0.646094,
2009-10-01, 02:53:04,VALID,998.383,VALID,0,VALID,91.6851,VALID,0,VALID,23.5841,VALID,103,VALID,0.632031,
2009-10-01, 02:54:04,VALID,998.363,VALID,0,VALID,91.8148,VALID,0,VALID,23.6054,VALID,106,VALID,0.550391,
2009-10-01, 02:55:04,VALID,998.373,VALID,0,VALID,91.9293,VALID,0,VALID,23.5841,VALID,115,VALID,0.760938,
2009-10-01, 02:56:04,VALID,998.412,VALID,0,VALID,92.0437,VALID,0,VALID,23.6427,VALID,126,VALID,0.776953,
2009-10-01, 02:57:04,VALID,998.402,VALID,0,VALID,91.8911,VALID,0,VALID,23.6409,VALID,132,VALID,0.897656,
2009-10-01, 02:58:04,VALID,998.433,VALID,0,VALID,91.792,VALID,0,VALID,23.6622,VALID,132,VALID,0.83125,
2009-10-01, 02:59:04,VALID,998.453,VALID,0,VALID,91.8225,VALID,0,VALID,23.6622,VALID,132,VALID,0.878906,
2009-10-01, 03:00:04,VALID,998.441,VALID,0,VALID,91.853,VALID,0,VALID,23.6622,VALID,132,VALID,0.766406,
2009-10-01, 03:01:04,VALID,998.442,VALID,0,VALID,91.8225,VALID,0,VALID,23.6817,VALID,132,VALID,0.729688,
2009-10-01, 03:02:04,VALID,998.459,VALID,0,VALID,91.7767,VALID,0,VALID,23.6817,VALID,132,VALID,0.820313,
2009-10-01, 03:03:04,VALID,998.469,VALID,0,VALID,91.7309,VALID,0,VALID,23.7012,VALID,132,VALID,0.623438,
2009-10-01, 03:04:04,VALID,998.485,VALID,0,VALID,91.7385,VALID,0,VALID,23.7012,VALID,132,VALID,0.633984,
2009-10-01, 03:05:04,VALID,998.478,VALID,0,VALID,91.8148,VALID,0,VALID,23.7207,VALID,132,VALID,0.69375,
2009-10-01, 03:06:04,VALID,998.456,VALID,0,VALID,91.7462,VALID,0,VALID,23.7207,VALID,133,VALID,0.807031,
2009-10-01, 03:07:04,VALID,998.426,VALID,0,VALID,91.7309,VALID,0,VALID,23.7207,VALID,134,VALID,0.808984,
2009-10-01, 03:08:04,VALID,998.415,VALID,0,VALID,91.7233,VALID,0,VALID,23.7597,VALID,139,VALID,1.0957,
2009-10-01, 03:09:04,VALID,998.453,VALID,0,VALID,91.5478,VALID,0,VALID,23.7597,VALID,138,VALID,1.06055,
2009-10-01, 03:10:04,VALID,998.458,VALID,0,VALID,91.2503,VALID,0,VALID,23.7811,VALID,140,VALID,1.20742,
2009-10-01, 03:11:04,VALID,998.456,VALID,0,VALID,90.9756,VALID,0,VALID,23.7811,VALID,142,VALID,1.31016,
2009-10-01, 03:12:04,VALID,998.448,VALID,0,VALID,90.678,VALID,0,VALID,23.7793,VALID,142,VALID,1.4293,
2009-10-01, 03:13:04,VALID,998.45,VALID,0,VALID,90.2966,VALID,0,VALID,23.7988,VALID,143,VALID,1.39688,
2009-10-01, 03:14:04,VALID,998.466,VALID,0,VALID,89.7854,VALID,0,VALID,23.8396,VALID,139,VALID,1.57266,
2009-10-01, 03:15:04,VALID,998.424,VALID,0,VALID,89.381,VALID,0,VALID,23.8378,VALID,132,VALID,1.98594,
2009-10-01, 03:16:04,VALID,998.437,VALID,0,VALID,89.114,VALID,0,VALID,23.8768,VALID,132,VALID,1.84492,
2009-10-01, 03:17:04,VALID,998.476,VALID,0,VALID,88.9614,VALID,0,VALID,23.8768,VALID,135,VALID,1.68438,
2009-10-01, 03:18:04,VALID,998.518,VALID,0,VALID,88.8469,VALID,0,VALID,23.8963,VALID,140,VALID,1.06445,
2009-10-01, 03:19:04,VALID,998.541,VALID,0,VALID,88.7401,VALID,0,VALID,23.8963,VALID,144,VALID,0.867188,
2009-10-01, 03:20:04,VALID,998.548,VALID,0,VALID,88.618,VALID,0,VALID,23.9159,VALID,144,VALID,0.712891,
2009-10-01, 03:21:04,VALID,998.519,VALID,0,VALID,88.6486,VALID,0,VALID,23.9159,VALID,144,VALID,0.871094,
2009-10-01, 03:22:04,VALID,998.534,VALID,0,VALID,88.6562,VALID,0,VALID,23.9159,VALID,138,VALID,0.926562,
2009-10-01, 03:23:04,VALID,998.534,VALID,0,VALID,88.5723,VALID,0,VALID,23.9354,VALID,138,VALID,0.862109,
2009-10-01, 03:24:04,VALID,998.549,VALID,0,VALID,88.4883,VALID,0,VALID,23.9354,VALID,138,VALID,0.755469,
2009-10-01, 03:25:04,VALID,998.589,VALID,0,VALID,88.4654,VALID,0,VALID,23.9354,VALID,138,VALID,0.663281,
2009-10-01, 03:26:04,VALID,998.571,VALID,0,VALID,88.351,VALID,0,VALID,23.9354,VALID,137,VALID,0.699219,
2009-10-01, 03:27:04,VALID,998.615,VALID,0,VALID,88.3129,VALID,0,VALID,23.914,VALID,132,VALID,0.834766,
2009-10-01, 03:28:04,VALID,998.577,VALID,0,VALID,88.4273,VALID,0,VALID,23.9159,VALID,125,VALID,0.977734,
2009-10-01, 03:29:04,VALID,998.539,VALID,0,VALID,88.351,VALID,0,VALID,23.9159,VALID,118,VALID,1.27188,
2009-10-01, 03:30:04,VALID,998.577,VALID,0,VALID,88.1832,VALID,0,VALID,23.9159,VALID,107,VALID,0.801172,
2009-10-01, 03:31:04,VALID,998.587,VALID,0,VALID,88.2594,VALID,0,VALID,23.8963,VALID,106,VALID,0.620703,
2009-10-01, 03:32:04,VALID,998.581,VALID,0,VALID,88.3739,VALID,0,VALID,23.875,VALID,85,VALID,0.734375,
2009-10-01, 03:33:04,VALID,998.57,VALID,0,VALID,88.1603,VALID,0,VALID,23.8768,VALID,88,VALID,0.878125,
2009-10-01, 03:34:04,VALID,998.536,VALID,0,VALID,88.1297,VALID,0,VALID,23.8573,VALID,107,VALID,1.03672,
2009-10-01, 03:35:04,VALID,998.534,VALID,0,VALID,88.1526,VALID,0,VALID,23.8183,VALID,111,VALID,1.15469,
2009-10-01, 03:36:04,VALID,998.525,VALID,0,VALID,88.2747,VALID,0,VALID,23.7793,VALID,111,VALID,1.10469,
2009-10-01, 03:37:04,VALID,998.526,VALID,0,VALID,88.4578,VALID,0,VALID,23.7597,VALID,115,VALID,1.20313,
2009-10-01, 03:38:04,VALID,998.529,VALID,0,VALID,88.6028,VALID,0,VALID,23.7402,VALID,116,VALID,0.847656,
2009-10-01, 03:39:04,VALID,998.569,VALID,0,VALID,88.6104,VALID,0,VALID,23.7402,VALID,113,VALID,0.623047,
2009-10-01, 03:40:04,VALID,998.587,VALID,0,VALID,88.6486,VALID,0,VALID,23.7207,VALID,113,VALID,0.317969,
2009-10-01, 03:41:04,VALID,998.611,VALID,0,VALID,88.7783,VALID,0,VALID,23.7207,VALID,113,VALID,0.313672,
2009-10-01, 03:42:04,VALID,998.601,VALID,0,VALID,88.824,VALID,0,VALID,23.7012,VALID,113,VALID,0.19375,
2009-10-01, 03:43:04,VALID,998.6,VALID,0,VALID,88.969,VALID,0,VALID,23.7012,VALID,113,VALID,0.307031,
2009-10-01, 03:44:04,VALID,998.625,VALID,0,VALID,89.0453,VALID,0,VALID,23.6817,VALID,113,VALID,0.0453125,
2009-10-01, 03:45:04,VALID,998.616,VALID,0,VALID,89.0224,VALID,0,VALID,23.6817,VALID,113,VALID,0,